Location: Unspecified
(0.0000°N, 0.0000°E)
Time: 18:59:06
(UTC+00:00)

SRMSAT - Pass Details

Date: 03 June 2020
Orbit: 848 x 866 km, 20.0° (Epoch: 06 July)

Event Time Altitude Azimuth Distance (km) Brightness Sun altitude
Exits shadow 04:17:13 13° 176° (S) 2,319 ? -23.2°
Drops below altitude 10° 04:18:40 10° 162° (SSE) 2,496 ? -22.9°
Sets 04:22:45 0° 136° (SE) 3,434 ? -22.0°
